This is the latest recevied weather packets stored in our database for station/object AE5TC. If no packets are shown the sender has not sent any weather packets the latest 10 day(s).
| Time | Temp. | Humidity | Pressure | Rain* | Wind** | Luminosity | Snow |
|---|---|---|---|---|---|---|---|
| 1778022334 | 23.89° C | 85% | 1014 hPa | 0 mm | - | 64 W/m² | - |
| 1778022030 | 24.44° C | 83% | 1014 hPa | 0 mm | - | 103 W/m² | - |
| 1778021727 | 24.44° C | 83% | 1013.9 hPa | 0 mm | - | 114 W/m² | - |
| 1778021423 | 24.44° C | 82% | 1014 hPa | 0 mm | - | 91 W/m² | - |
| 1778021120 | 25° C | 81% | 1014 hPa | 0 mm | - | 128 W/m² | - |
| 1778020818 | 25° C | 79% | 1013.9 hPa | 0 mm | - | 187 W/m² | - |
| 1778020515 | 25° C | 81% | 1013.8 hPa | 0 mm | - | 163 W/m² | - |
| 1778020211 | 25° C | 80% | 1013.8 hPa | 0 mm | - | 210 W/m² | - |
| 1778019907 | 25° C | 78% | 1013.8 hPa | 0 mm | - | 222 W/m² | - |
| 1778019603 | 25° C | 78% | 1013.8 hPa | 0 mm | - | 165 W/m² | - |
| 1778019300 | 25° C | 79% | 1013.9 hPa | 0 mm | - | 230 W/m² | - |
| 1778018997 | 25.56° C | 78% | 1013.8 hPa | 0 mm | - | 226 W/m² | - |
| 1778018694 | 25.56° C | 79% | 1014 hPa | 0 mm | - | 275 W/m² | - |
| 1778018391 | 25.56° C | 74% | 1013.9 hPa | 0 mm | - | 235 W/m² | - |
| 1778018090 | 25.56° C | 71% | 1013.8 hPa | 0 mm | - | 325 W/m² | - |
| 1778017787 | 25.56° C | 72% | 1014 hPa | 0 mm | - | 291 W/m² | - |
| 1778017485 | 25.56° C | 75% | 1014.1 hPa | 0 mm | - | 332 W/m² | - |
| 1778017182 | 26.11° C | 73% | 1014 hPa | 0 mm | - | 327 W/m² | - |
| 1778016880 | 26.11° C | 73% | 1014 hPa | 0 mm | - | 380 W/m² | - |
| 1778016576 | 25.56° C | 74% | 1014 hPa | 0 mm | - | 369 W/m² | - |
| 1778016273 | 26.11° C | 71% | 1014 hPa | 0 mm | - | 372 W/m² | - |
| 1778015969 | 25.56° C | 74% | 1013.9 hPa | 0 mm | - | 429 W/m² | - |
| 1778015667 | 25.56° C | 71% | 1014 hPa | 0 mm | - | 386 W/m² | - |
| 1778015363 | 25.56° C | 67% | 1013.7 hPa | 0 mm | - | 378 W/m² | - |
| 1778015063 | 26.11° C | 65% | 1014 hPa | 0 mm | - | 402 W/m² | - |
* Rain latest hour (hover to see other rain measurements)
** Current wind speed in m/s (hover to see current wind gust speed)